Wind_Speed
16 16 16 16 16 15 15 15 15 15 14 14 14 13 13 13 12 12 11 11 10 9 8 9 9 8 8 7 6 6 5 5 4 4 3 3 3 3 3 3 3 3 3
17 17 18 18 17 17 16 16 16 16 15 15 15 14 14 14 14 13 13 12 11 10 10 9 10 9 9 8 7 6 6 6 5 5 4 4 4 4 4 4 4 4 4
19 19 19 19 19 18 18 17 17 17 16 16 16 15 15 15 15 14 14 13 13 12 11 11 10 10 10 9 8 8 7 7 6 6 6 5 5 5 5 4 4 4 4
20 20 20 20 20 19 19 18 18 18 18 17 17 16 16 16 15 15 15 14 14 14 13 12 11 11 11 10 9 9 8 8 7 7 7 6 6 6 5 5 5 5 5
21 21 21 21 21 21 20 19 19 19 19 19 18 18 17 17 16 16 16 16 15 15 15 14 13 12 12 12 11 10 9 9 9 9 8 8 8 7 7 7 7 7 7
22 22 22 22 22 21 21 21 21 20 20 20 19 19 19 19 18 18 18 18 17 16 16 15 15 14 13 13 12 12 11 11 10 10 10 9 9 9 8 8 8 9 8
23 23 22 22 22 22 22 22 22 22 22 21 21 20 20 20 20 19 19 19 19 18 18 17 16 16 15 14 14 14 13 13 12 12 11 11 10 10 10 10 10 10 10
25 24 23 23 22 23 23 22 22 22 23 23 23 22 21 21 20 20 20 20 20 20 19 19 18 17 17 17 16 16 15 14 14 13 13 12 12 12 12 11 12 11 11
27 26 25 24 23 23 23 23 23 23 23 24 24 24 23 22 21 21 21 21 21 20 20 20 20 19 18 18 18 17 17 16 15 15 14 14 14 13 13 13 13 13 13
28 27 26 26 25 24 24 24 24 24 24 25 25 25 25 24 23 22 22 22 22 22 22 22 21 21 20 19 19 18 18 17 17 16 16 16 16 15 15 14 14 14 14
30 29 28 27 27 26 26 25 25 25 25 25 26 26 26 25 25 24 24 23 23 24 23 23 23 23 22 21 21 20 19 19 18 18 17 17 17 16 16 16 16 16 16
31 31 30 30 29 28 28 27 27 26 26 26 27 27 27 27 27 26 25 25 25 25 25 25 24 24 24 24 23 22 21 21 20 20 19 18 18 18 18 18 18 18 18
33 33 33 32 31 30 30 29 28 28 28 28 28 29 29 29 29 28 27 27 27 26 26 26 26 26 26 26 25 24 23 23 23 22 21 21 20 20 20 20 20 20 20
35 34 34 34 33 32 32 31 30 30 29 29 29 29 30 30 30 30 30 29 29 28 28 27 27 27 27 27 27 26 26 25 25 24 24 23 23 22 22 22 22 22 22
36 36 35 35 35 34 34 33 32 32 31 31 30 30 30 31 31 31 31 30 30 30 30 29 29 29 29 29 28 28 28 28 27 27 27 27 26 25 25 24 24 25 25
38 37 36 36 36 35 34 34 34 34 33 32 32 31 31 31 32 32 32 31 31 31 31 31 30 30 30 30 30 29 29 30 30 29 29 29 29 28 27 27 27 27 27
40 39 38 38 37 37 35 35 35 35 35 34 33 33 33 33 33 33 33 33 33 33 32 32 32 32 32 32 32 32 31 31 31 31 31 30 30 29 29 29 29 29 28
41 41 40 39 38 38 37 36 36 36 36 36 35 35 35 35 34 35 35 35 34 34 34 33 33 33 33 33 33 33 33 33 33 33 32 32 31 31 31 31 30 30 30
42 42 41 40 40 39 39 38 37 38 38 37 36 36 36 36 36 35 34 35 35 35 35 35 35 35 35 35 35 35 35 35 35 34 34 34 34 33 33 33 32 32 32
42 42 42 42 41 40 40 40 39 39 38 38 38 37 37 37 36 36 36 36 36 36 36 35 35 36 36 36 36 36 37 37 36 36 36 36 36 35 35 35 35 34 34
43 43 42 42 42 41 41 41 40 40 40 39 39 39 38 38 38 38 37 37 37 37 37 37 36 36 36 37 37 37 38 38 37 37 37 37 37 37 37 36 36 36 37
43 43 43 42 42 42 42 42 41 41 41 40 40 39 39 38 38 38 39 38 37 38 38 38 37 38 37 37 37 38 38 38 38 38 38 38 39 38 38 38 38 38 38
44 44 44 43 42 42 42 42 42 42 41 40 40 40 39 39 38 38 39 38 37 37 37 38 38 38 38 38 38 39 39 38 38 39 39 40 40 40 40 39 39 40 40
44 44 44 44 43 43 43 42 42 42 41 41 41 40 40 39 38 38 39 39 39 39 38 38 38 38 38 39 39 40 40 40 39 39 40 40 41 41 42 41 40 40 41
44 44 44 45 44 43 43 42 42 42 42 42 42 41 40 39 38 38 38 39 38 38 38 38 38 38 38 39 39 40 40 41 41 41 40 41 41 42 43 43 43 42 42
45 45 44 45 45 44 43 43 42 42 42 42 42 42 41 40 38 37 38 38 37 37 38 38 38 39 38 38 38 39 40 41 41 41 41 41 42 42 43 44 44 45 45
Wind_Direction
238 239 238 238 239 240 241 240 238 238 237 237 236 235 234 233 233 232 232 232 231 231 231 229 225 224 224 227 230 234 239 243 245 250 260 268 279 287 293 301 313 320 322
239 239 238 238 240 241 242 241 239 239 239 239 239 239 238 237 236 236 235 234 233 234 234 234 231 228 228 231 234 237 241 245 247 251 259 266 273 280 285 289 298 306 309
241 240 239 239 241 241 242 242 241 240 240 240 240 240 239 239 238 238 237 237 237 238 238 238 237 234 235 236 237 240 244 248 250 254 260 266 270 274 277 281 286 293 298
242 241 240 241 242 242 241 242 242 242 242 243 243 242 241 240 240 240 240 240 240 241 242 241 242 240 240 240 240 243 246 250 253 256 259 263 268 271 275 279 282 286 290
243 242 242 243 244 244 243 243 244 244 243 244 245 246 244 243 243 242 242 243 243 244 244 244 246 245 243 243 245 246 249 254 255 257 258 261 267 271 275 278 280 282 283
244 243 244 244 245 245 245 244 245 245 245 245 245 246 247 245 246 246 245 245 245 245 246 246 247 247 246 246 247 249 251 254 257 260 261 262 266 271 275 278 281 282 280
245 244 244 245 245 245 246 245 245 245 246 246 245 247 247 247 247 247 246 246 246 246 247 247 248 247 248 248 248 250 253 253 256 259 261 262 264 268 272 277 279 281 282
245 244 245 246 246 246 246 246 246 246 247 247 247 247 248 249 248 247 247 247 247 248 249 248 248 248 249 250 251 252 252 253 256 258 259 262 264 267 271 275 278 280 282
245 245 246 247 247 246 246 247 247 249 249 248 248 248 249 249 248 248 248 249 249 249 249 249 249 249 250 251 252 253 253 253 256 258 260 262 265 267 270 275 278 280 282
245 245 246 247 247 247 247 248 249 250 250 250 249 249 250 249 248 247 248 250 250 251 251 251 251 251 251 252 253 254 254 254 255 257 261 263 265 267 270 273 276 279 281
245 245 246 247 248 249 249 250 250 251 251 251 250 250 250 250 250 248 248 250 251 252 252 252 252 252 253 253 254 255 255 255 256 258 260 262 264 267 270 272 275 277 279
245 246 247 247 249 250 251 251 251 252 252 251 250 250 250 250 250 249 249 250 252 252 252 253 253 254 254 254 255 255 255 256 258 258 259 261 264 267 270 272 273 275 277
245 246 248 248 249 250 251 252 252 252 253 253 251 251 251 252 251 250 250 252 252 253 253 254 254 255 255 254 254 255 256 257 258 259 260 262 264 267 269 271 274 275 276
246 247 248 249 249 250 251 252 253 253 254 253 253 252 252 252 251 250 250 252 253 253 253 254 254 254 255 255 255 255 256 257 258 260 261 263 264 266 269 271 273 275 276
246 247 248 249 250 251 251 252 253 253 253 253 253 253 252 252 252 251 251 252 252 253 253 254 254 256 256 256 256 256 256 257 258 260 262 263 264 266 268 271 273 275 276
247 247 248 249 249 250 251 252 253 253 253 253 254 255 253 252 252 251 252 252 252 253 253 254 254 256 256 257 256 256 257 257 259 261 262 263 265 265 268 270 272 273 275
247 247 247 248 250 250 251 251 253 253 253 253 254 254 254 252 252 252 252 253 253 254 254 254 254 255 257 257 257 257 258 259 260 261 262 264 265 265 268 270 271 273 274
247 247 248 248 249 250 251 251 252 253 253 253 254 254 253 252 253 254 253 254 254 254 254 255 256 256 257 257 257 257 258 259 261 261 262 264 265 266 268 269 271 273 274
247 247 248 248 249 250 250 251 252 253 253 253 253 253 252 251 253 253 254 255 255 255 255 256 257 257 258 258 258 258 259 260 261 261 262 264 265 267 268 269 270 272 273
247 247 248 249 249 250 250 251 251 253 253 253 253 253 252 252 253 254 254 255 255 255 255 256 257 258 259 259 259 259 259 260 261 262 262 263 265 267 268 269 270 271 272
247 247 248 249 250 250 251 251 251 252 253 253 253 252 252 252 254 255 256 257 256 256 256 257 257 258 259 259 259 259 259 260 261 262 263 265 266 266 267 269 269 271 272
248 248 248 248 249 250 251 251 252 252 251 251 252 252 252 253 254 255 257 256 256 256 256 257 258 259 260 260 260 261 261 262 263 263 265 266 266 266 267 268 270 271 271
249 248 247 247 248 250 251 251 251 250 249 249 251 251 252 253 255 256 256 255 254 257 257 257 259 260 260 261 261 262 262 262 263 264 265 266 266 267 267 269 271 272 272
250 249 248 247 248 249 250 251 250 249 248 248 250 251 252 253 254 256 255 254 254 256 258 259 259 261 262 261 262 262 263 262 263 264 265 265 265 266 267 268 270 271 272
249 250 249 248 248 249 250 250 249 248 248 248 249 251 252 252 254 256 255 253 254 256 257 259 259 261 263 263 263 263 263 264 264 265 265 265 266 266 267 268 269 272 273
248 249 249 249 248 248 249 249 248 248 248 248 249 250 250 251 252 254 254 252 253 255 257 258 260 260 263 264 264 264 265 265 266 265 266 266 267 267 268 269 270 271 273
Height
5839 5840 5841 5843 5844 5845 5846 5848 5849 5850 5851 5852 5853 5854 5855 5857 5858 5859 5860 5861 5861 5862 5863 5864 5864 5865 5866 5866 5867 5868 5868 5869 5869 5869 5870 5870 5870 5870 5871 5871 5871 5871 5871
5836 5837 5839 5840 5841 5843 5844 5845 5847 5848 5849 5850 5851 5853 5854 5855 5856 5857 5858 5859 5860 5861 5862 5862 5863 5864 5865 5865 5866 5867 5867 5868 5868 5869 5869 5869 5869 5870 5870 5870 5870 5870 5870
5833 5834 5836 5837 5839 5840 5841 5843 5844 5846 5847 5848 5849 5851 5852 5853 5854 5855 5856 5858 5859 5860 5860 5861 5862 5863 5864 5864 5865 5865 5866 5867 5867 5868 5868 5868 5869 5869 5869 5869 5869 5869 5869
5830 5831 5833 5834 5836 5837 5838 5840 5841 5843 5844 5846 5847 5848 5849 5851 5852 5853 5854 5856 5857 5858 5859 5860 5860 5861 5862 5863 5863 5864 5865 5865 5866 5867 5867 5867 5868 5868 5868 5868 5868 5868 5868
5826 5828 5829 5831 5832 5834 5835 5837 5839 5840 5842 5843 5844 5846 5847 5848 5850 5851 5852 5853 5855 5856 5857 5858 5859 5860 5860 5861 5862 5863 5863 5864 5865 5865 5866 5866 5866 5867 5867 5867 5867 5867 5867
5823 5824 5826 5827 5829 5830 5832 5834 5835 5837 5838 5840 5841 5843 5844 5846 5847 5848 5850 5851 5852 5853 5855 5856 5857 5857 5858 5859 5860 5861 5862 5862 5863 5864 5864 5865 5865 5865 5865 5865 5866 5866 5865
5819 5820 5822 5823 5825 5827 5828 5830 5832 5833 5835 5836 5838 5840 5841 5842 5844 5845 5847 5848 5849 5851 5852 5853 5854 5855 5856 5857 5858 5859 5860 5860 5861 5862 5862 5863 5863 5863 5863 5864 5864 5864 5864
5814 5816 5818 5819 5821 5823 5824 5826 5828 5829 5831 5833 5834 5836 5837 5839 5841 5842 5843 5845 5846 5847 5849 5850 5851 5852 5853 5854 5855 5856 5857 5858 5858 5859 5860 5860 5861 5861 5861 5862 5862 5862 5862
5809 5811 5813 5815 5817 5818 5820 5822 5824 5825 5827 5828 5830 5832 5834 5835 5837 5838 5840 5841 5843 5844 5845 5846 5848 5849 5850 5851 5852 5853 5854 5855 5855 5856 5857 5858 5858 5859 5859 5859 5859 5859 5859
5804 5806 5808 5810 5812 5814 5816 5817 5819 5821 5822 5824 5825 5827 5829 5831 5832 5834 5836 5837 5839 5840 5841 5843 5844 5845 5846 5847 5848 5849 5850 5851 5852 5853 5854 5855 5855 5856 5856 5856 5856 5857 5856
5799 5801 5803 5805 5807 5809 5811 5812 5814 5816 5818 5819 5821 5822 5824 5826 5828 5830 5831 5833 5834 5836 5837 5839 5840 5841 5843 5844 5845 5846 5847 5848 5849 5850 5850 5851 5852 5852 5853 5853 5853 5853 5853
5793 5795 5797 5800 5802 5804 5805 5807 5809 5811 5812 5814 5816 5817 5819 5821 5823 5825 5826 5828 5830 5831 5833 5834 5835 5837 5838 5839 5841 5842 5843 5844 5845 5846 5847 5847 5848 5848 5849 5849 5849 5850 5850
5786 5789 5791 5793 5796 5798 5800 5801 5803 5805 5807 5808 5810 5812 5813 5815 5817 5819 5821 5823 5824 5826 5828 5829 5831 5832 5833 5835 5836 5837 5838 5839 5840 5841 5842 5843 5844 5844 5845 5845 5845 5846 5846
5779 5782 5784 5787 5789 5791 5793 5795 5797 5799 5801 5802 5804 5805 5807 5809 5811 5813 5815 5817 5819 5821 5822 5824 5825 5826 5828 5829 5831 5832 5833 5834 5835 5836 5837 5838 5839 5839 5840 5840 5841 5841 5841
5771 5774 5777 5779 5782 5784 5786 5789 5790 5792 5794 5796 5797 5799 5801 5803 5805 5807 5809 5811 5813 5814 5816 5818 5819 5821 5822 5824 5825 5826 5827 5828 5830 5831 5832 5833 5833 5834 5835 5835 5835 5835 5836
5763 5766 5769 5771 5774 5776 5779 5781 5783 5785 5787 5789 5791 5793 5794 5796 5799 5800 5802 5804 5806 5808 5810 5811 5813 5814 5816 5817 5819 5820 5821 5822 5823 5825 5825 5826 5827 5828 5828 5829 5829 5830 5830
5755 5758 5761 5764 5766 5769 5771 5774 5776 5778 5780 5782 5784 5786 5788 5789 5791 5793 5795 5797 5799 5801 5803 5804 5806 5807 5809 5810 5811 5813 5814 5815 5817 5818 5819 5820 5820 5821 5822 5822 5823 5823 5823
5746 5749 5752 5755 5758 5761 5763 5766 5768 5770 5772 5775 5777 5778 5780 5782 5784 5786 5788 5790 5791 5793 5795 5797 5798 5800 5801 5802 5804 5805 5807 5808 5809 5810 5811 5812 5813 5814 5815 5815 5816 5816 5816
5736 5740 5743 5746 5749 5752 5755 5757 5760 5762 5764 5766 5769 5770 5772 5774 5776 5778 5780 5782 5783 5785 5787 5788 5790 5792 5793 5794 5796 5797 5799 5800 5801 5802 5803 5805 5806 5806 5807 5807 5808 5808 5808
5727 5730 5734 5737 5740 5743 5746 5748 5751 5753 5755 5758 5760 5762 5764 5766 5768 5770 5771 5773 5775 5776 5778 5780 5781 5783 5784 5786 5787 5788 5790 5791 5792 5794 5795 5796 5797 5798 5799 5799 5800 5800 5800
5717 5720 5724 5727 5730 5733 5736 5739 5742 5744 5746 5749 5751 5753 5755 5757 5759 5761 5763 5764 5766 5767 5769 5771 5772 5774 5775 5776 5778 5779 5781 5782 5784 5785 5786 5787 5788 5789 5790 5790 5791 5792 5792
5706 5710 5713 5717 5720 5723 5726 5729 5732 5734 5737 5739 5741 5744 5746 5748 5750 5751 5753 5755 5756 5758 5760 5761 5763 5765 5766 5767 5769 5770 5772 5774 5774 5775 5777 5778 5778 5779 5780 5781 5782 5782 5783
5696 5700 5703 5706 5710 5712 5715 5718 5721 5724 5726 5729 5732 5734 5737 5739 5740 5741 5743 5745 5747 5749 5751 5752 5754 5756 5757 5758 5759 5761 5762 5764 5765 5766 5767 5768 5769 5770 5771 5772 5772 5773 5773
5686 5689 5692 5695 5699 5702 5705 5708 5710 5713 5717 5719 5722 5724 5727 5729 5730 5731 5733 5735 5738 5740 5742 5743 5745 5746 5747 5749 5750 5751 5753 5754 5755 5757 5758 5758 5759 5760 5761 5762 5763 5763 5763
5674 5678 5681 5684 5688 5691 5694 5697 5700 5703 5706 5709 5712 5714 5716 5719 5720 5722 5723 5725 5728 5731 5733 5734 5736 5737 5738 5739 5740 5741 5742 5744 5745 5746 5748 5748 5749 5750 5751 5752 5752 5753 5752
5663 5666 5670 5673 5677 5680 5683 5686 5689 5692 5695 5698 5701 5704 5706 5709 5711 5713 5714 5717 5719 5722 5724 5725 5727 5728 5729 5730 5731 5732 5732 5733 5734 5736 5737 5738 5739 5740 5740 5741 5742 5742 5742